Aeroporto :
LOGIN :

Iscrizione | Disclaimer

   EN    FR    IT 

 










Sommario :    VFR   VFR Marginale   IFR   IFR Intensivo   IFR Molto Intensivo
Visibilità : 
Base nubi : 
>= 8 km
>= 3000ft
5 / 8 km
1000 / 3000 ft
1500m / 5 km
500 / 1000 ft
800 / 1500m
200 / 500 ft
< 800m
< 200 ft
Simboli :   Temporali  Nebbia  Neve Forte  Precipitazioni Forti  Vento > 20 kt
SIGMETs :   Varie  Temporali  Ghiacco  Turbolenza  Onda orograficha  Ceneri Vulcaniche







- Altitudine del aeroporto : 648 ft
- Codice IATA : INI


LYNI - Nis Constantine

ULTIMO METAR :
  • 270730Z 24003KT 170V300 9999 FEW040 25/18 Q1020 NOSIG

METARs OBSOLETI :
  • 270700Z VRB01KT CAVOK 24/18 Q1021 NOSIG
  • 270630Z VRB01KT CAVOK 23/18 Q1021 NOSIG
  • 270600Z VRB02KT CAVOK 22/17 Q1021 NOSIG
  • 270530Z VRB01KT CAVOK 21/17 Q1021 NOSIG
  • 270500Z VRB02KT CAVOK 19/17 Q1021 NOSIG

TAF TAF LYNI
Valido dal 27 a 06 ore il 28 a 06 ore UTC


270500Z 2706/2806 29006KT CAVOK TX34/2713Z TN16/2803Z
PROB40
TEMPO 2723/2803 34020G30KT 5000 TSRA SCT030CB SCT033
Nessun NOTAM noto per questo aeroporto.



MetMap, La meteo Aeronautica in un colpo d'occhio ! - Copyright ORBIFLY Dicembre 2007 - Disclaimer

ORBIFLY MET'MAP TEAM :

Programmazione e sviluppo : Alexandra Zaïnal
Concezione e sviluppo : Baudouin d'Aumeries
Co-Programmazione e sviluppo : Marc-Olivier Méhu
Supporto tecnico e logistico : Manuel Goepfert
Aiuto per la traduzione : Arnaldo La Scala

Contatto : metmap@orbifly.com




FONTI E CREDITI :

   NOAA